Location: Peebles
(55.6412°N, 3.1714°W)
Time: 14:56:00
(UTC+01:00)

Cosmos 1726 - Pass Details

Date: 26 September 2021
Orbit: 478 x 496 km, 82.5° (Epoch: 17 October)

Event Time Altitude Azimuth Distance (km) Brightness Sun altitude
Exits shadow 22:12:49 40° 294° (WNW) 736 3.3 -25.9°
Drops below altitude 10° 22:16:10 10° 360° (N) 1,674 5.3 -26.3°
Sets 22:18:22 0° 8° (N) 2,557 6.2 -26.5°
